FW8733 Weather Reports


Display with metric or nautical units.
time (UTC)temp
F
wind
direction
speed
MPH
gust
MPH
rain 1hr
in
rain 24hr
in
rain mn
in
humidity
%
barometer
mb
20260903042256 86 193 3.0 5.0 0.00 0.00 0.00 66 1016.4
20260903041753 86 164 3.0 5.0 0.00 0.00 0.00 65 1016.2
20260903041249 87 206 5.0 7.0 0.00 0.00 0.00 65 1016.1
20260903040748 87 219 1.0 1.0 0.00 0.00 0.00 64 1016.3
20260903040243 87 138 6.0 8.0 0.00 0.00 0.00 64 1016.0
20260903035739 87 194 3.0 5.0 0.00 0.00 0.00 63 1016.2
20260903035234 88 230 4.0 5.0 0.00 0.00 0.00 63 1016.2
20260903034729 88 182 4.0 7.0 0.00 0.00 0.00 62 1016.0
20260903034224 88 180 3.0 5.0 0.00 0.00 0.00 61 1016.0
20260903033720 88 172 8.0 11.0 0.00 0.00 0.00 60 1015.9
20260903033220 88 176 5.0 6.0 0.00 0.00 0.00 61 1016.1
20260903032714 88 187 2.0 3.0 0.00 0.00 0.00 60 1016.0
20260903032210 88 148 3.0 3.0 0.00 0.00 0.00 60 1015.7
20260903031706 89 197 1.0 2.0 0.00 0.00 0.00 60 1015.8
20260903031205 89 211 1.0 2.0 0.00 0.00 0.00 59 1015.8
20260903030702 89 170 3.0 3.0 0.00 0.00 0.00 59 1015.6
20260903030157 89 211 2.0 2.0 0.00 0.00 0.00 59 1015.5
20260903025652 89 200 2.0 3.0 0.00 0.00 0.00 59 1015.4
20260903025148 88 232 0.0 0.0 0.00 0.00 0.00 60 1015.4
20260903024643 87 207 2.0 2.0 0.00 0.00 0.00 62 1015.2
20260903024141 87 208 0.0 0.0 0.00 0.00 0.00 63 1015.2
20260903023638 87 208 0.0 0.0 0.00 0.00 0.00 62 1015.1
20260903023138 88 208 0.0 0.0 0.00 0.00 0.00 61 1014.9
20260903022632 88 207 0.0 0.0 0.00 0.00 0.00 61 1014.8
20260903022131 88 208 0.0 0.0 0.00 0.00 0.00 60 1014.8
20260903021626 89 208 0.0 0.0 0.00 0.00 0.00 58 1015.0
20260903021126 89 208 0.0 0.0 0.00 0.00 0.00 57 1014.8
20260903020621 89 208 0.0 0.0 0.00 0.00 0.00 57 1014.5
20260903020116 89 208 0.0 0.0 0.00 0.00 0.00 56 1014.7
20260903015612 90 208 0.0 0.0 0.00 0.00 0.00 56 1014.6
20260903015107 90 208 0.0 0.0 0.00 0.00 0.00 55 1014.5
20260903014607 91 208 0.0 0.0 0.00 0.00 0.00 55 1014.5
20260903014106 91 203 2.0 2.0 0.00 0.00 0.00 54 1014.3
20260903013601 90 216 1.0 1.0 0.00 0.00 0.00 55 1014.4
20260903013056 90 233 0.0 0.0 0.00 0.00 0.00 61 1014.4
20260903012555 91 233 0.0 0.0 0.00 0.00 0.00 59 1014.4
20260903012054 91 233 0.0 0.0 0.00 0.00 0.00 56 1014.3
20260903011549 92 233 0.0 0.0 0.00 0.00 0.00 54 1014.3
20260903011049 93 205 0.0 0.0 0.00 0.00 0.00 53 1014.3
20260903010544 93 173 2.0 3.0 0.00 0.00 0.00 51 1014.3
20260903010042 93 205 0.0 0.0 0.00 0.00 0.00 52 1014.0
20260903005537 94 205 0.0 0.0 0.00 0.00 0.00 51 1014.4
20260903005033 94 220 0.0 0.0 0.00 0.00 0.00 50 1014.0
20260903004532 94 173 1.0 2.0 0.00 0.00 0.00 49 1014.1
20260903004028 94 205 0.0 0.0 0.00 0.00 0.00 48 1014.2
20260903003523 94 219 0.0 0.0 0.00 0.00 0.00 50 1014.1
20260903003019 95 226 0.0 0.0 0.00 0.00 0.00 48 1014.0
20260903002519 95 226 0.0 0.0 0.00 0.00 0.00 48 1014.2
20260903002013 95 217 2.0 2.0 0.00 0.00 0.00 46 1014.0
20260903001508 95 215 1.0 1.0 0.00 0.00 0.00 47 1014.1
20260903001007 95 233 0.0 0.0 0.00 0.00 0.00 48 1014.2
20260903000503 95 233 0.0 0.0 0.00 0.00 0.00 47 1014.1
20260903000001 95 242 0.0 0.0 0.00 0.00 0.00 47 1014.1
20260902235456 96 228 0.0 0.0 0.00 0.00 0.00 46 1014.2
20260902234950 97 220 0.0 0.0 0.00 0.00 0.00 43 1014.3
20260902234445 97 203 0.0 0.0 0.00 0.00 0.00 44 1014.2
20260902233944 98 205 0.0 0.0 0.00 0.00 0.00 43 1014.1
20260902233438 99 207 0.0 0.0 0.00 0.00 0.00 41 1014.2
20260902232938 100 186 1.0 2.0 0.00 0.00 0.00 40 1014.2
20260902232433 101 243 0.0 0.0 0.00 0.00 0.00 42 1014.2
20260902231932 99 242 0.0 0.0 0.00 0.00 0.00 42 1014.2
20260902231428 100 241 0.0 0.0 0.00 0.00 0.00 41 1014.1
20260902230922 101 255 0.0 0.0 0.00 0.00 0.00 42 1014.1
20260902230422 101 231 0.0 1.0 0.00 0.00 0.00 40 1014.0
20260902225916 100 218 0.0 0.0 0.00 0.00 0.00 43 1014.2
20260902225411 99 187 2.0 2.0 0.00 0.00 0.00 42 1014.1
20260902224909 100 205 2.0 2.0 0.00 0.00 0.00 42 1014.2
20260902224409 99 204 0.0 0.0 0.00 0.00 0.00 45 1014.1
20260902223906 98 208 2.0 2.0 0.00 0.00 0.00 44 1014.3
20260902223401 100 215 2.0 2.0 0.00 0.00 0.00 43 1014.4
20260902222856 99 224 0.0 0.0 0.00 0.00 0.00 44 1014.3
20260902222354 99 223 0.0 0.0 0.00 0.00 0.00 42 1014.4
20260902221853 98 206 2.0 3.0 0.00 0.00 0.00 43 1014.5
20260902221353 97 205 2.0 2.0 0.00 0.00 0.00 45 1014.4
20260902220849 97 249 1.0 2.0 0.00 0.00 0.00 43 1014.5
20260902220348 98 195 0.0 0.0 0.00 0.00 0.00 43 1014.6
20260902215843 98 205 0.0 0.0 0.00 0.00 0.00 45 1014.6
20260902215338 98 235 0.0 1.0 0.00 0.00 0.00 44 1014.4
20260902214835 99 205 3.0 3.0 0.00 0.00 0.00 42 1014.5
20260902214333 99 263 0.0 1.0 0.00 0.00 0.00 43 1014.5
20260902213828 100 159 1.0 3.0 0.00 0.00 0.00 42 1014.5
20260902213324 99 216 2.0 2.0 0.00 0.00 0.00 43 1014.8
20260902212823 99 199 2.0 2.0 0.00 0.00 0.00 41 1014.8
20260902212320 100 148 3.0 3.0 0.00 0.00 0.00 41 1014.6
20260902211816 100 214 0.0 0.0 0.00 0.00 0.00 44 1014.6
20260902211311 101 192 1.0 3.0 0.00 0.00 0.00 40 1014.9
20260902210806 101 213 3.0 3.0 0.00 0.00 0.00 40 1015.0
20260902210301 102 224 0.0 0.0 0.00 0.00 0.00 41 1014.6
20260902205759 100 227 1.0 2.0 0.00 0.00 0.00 41 1014.9
20260902205254 101 127 3.0 3.0 0.00 0.00 0.00 41 1015.1
20260902204749 100 159 3.0 3.0 0.00 0.00 0.00 41 1015.3
20260902204244 102 190 4.0 6.0 0.00 0.00 0.00 41 1015.1
20260902203738 102 182 2.0 3.0 0.00 0.00 0.00 40 1015.2
20260902203233 102 172 4.0 6.0 0.00 0.00 0.00 40 1015.4
20260902202734 102 240 1.0 1.0 0.00 0.00 0.00 43 1015.3
20260902202230 103 298 3.0 3.0 0.00 0.00 0.00 41 1015.3
20260902201727 102 146 6.0 7.0 0.00 0.00 0.00 40 1015.4
20260902201225 100 218 5.0 7.0 0.00 0.00 0.00 41 1015.3
20260902200721 101 180 3.0 5.0 0.00 0.00 0.00 43 1015.8
20260902200217 101 181 6.0 9.0 0.00 0.00 0.00 41 1015.6
20260902195712 100 199 3.0 3.0 0.00 0.00 0.00 44 1015.6
20260902195211 100 215 0.0 1.0 0.00 0.00 0.00 44 1015.8
20260902194710 99 215 3.0 3.0 0.00 0.00 0.00 43 1015.8
20260902194206 102 123 7.0 9.0 0.00 0.00 0.00 41 1015.9
20260902193701 101 295 2.0 2.0 0.00 0.00 0.00 41 1015.9
20260902193157 102 275 3.0 3.0 0.00 0.00 0.00 40 1015.9
20260902192654 102 274 1.0 2.0 0.00 0.00 0.00 40 1016.1
20260902192149 102 231 0.0 0.0 0.00 0.00 0.00 42 1016.2
20260902191649 101 270 1.0 1.0 0.00 0.00 0.00 43 1016.2
20260902191143 101 227 0.0 0.0 0.00 0.00 0.00 42 1016.3
20260902190639 102 300 1.0 2.0 0.00 0.00 0.00 43 1016.4
20260902190134 101 231 1.0 1.0 0.00 0.00 0.00 42 1016.5
20260902185630 101 212 0.0 1.0 0.00 0.00 0.00 41 1016.6
20260902185126 101 262 2.0 2.0 0.00 0.00 0.00 42 1016.7
20260902184620 100 304 2.0 2.0 0.00 0.00 0.00 43 1017.1
20260902184116 99 269 1.0 2.0 0.00 0.00 0.00 43 1016.8
20260902183612 99 240 0.0 0.0 0.00 0.00 0.00 45 1017.2
20260902183108 99 258 3.0 5.0 0.00 0.00 0.00 45 1017.2
20260902182604 100 269 0.0 1.0 0.00 0.00 0.00 45 1017.3
20260902182100 101 220 1.0 1.0 0.00 0.00 0.00 44 1017.3
20260902181556 100 214 0.0 0.0 0.00 0.00 0.00 46 1017.4
20260902181050 97 255 0.0 1.0 0.00 0.00 0.00 51 1017.5
20260902180549 99 197 0.0 1.0 0.00 0.00 0.00 43 1017.7
20260902180046 99 163 3.0 3.0 0.00 0.00 0.00 43 1017.6
20260902175545 98 240 0.0 1.0 0.00 0.00 0.00 48 1017.9
20260902175042 98 317 2.0 2.0 0.00 0.00 0.00 49 1018.1
20260902174538 99 211 3.0 3.0 0.00 0.00 0.00 44 1018.0
20260902174033 99 208 1.0 2.0 0.00 0.00 0.00 46 1018.1
20260902173533 98 264 1.0 2.0 0.00 0.00 0.00 47 1018.3
20260902173033 98 239 1.0 1.0 0.00 0.00 0.00 46 1018.4
20260902172527 98 261 0.0 1.0 0.00 0.00 0.00 48 1018.4
20260902172022 98 168 1.0 2.0 0.00 0.00 0.00 46 1018.3
20260902171518 98 209 0.0 1.0 0.00 0.00 0.00 49 1018.5
20260902171014 98 258 1.0 1.0 0.00 0.00 0.00 49 1018.6
20260902170508 98 208 2.0 2.0 0.00 0.00 0.00 48 1018.7
20260902170004 96 229 0.0 0.0 0.00 0.00 0.00 50 1018.6
20260902165503 97 289 2.0 2.0 0.00 0.00 0.00 49 1018.7
20260902164958 98 176 3.0 5.0 0.00 0.00 0.00 47 1018.7
20260902164453 97 208 0.0 0.0 0.00 0.00 0.00 49 1018.8
20260902163952 97 208 1.0 1.0 0.00 0.00 0.00 49 1018.8
20260902163448 96 221 1.0 1.0 0.00 0.00 0.00 50 1019.2
20260902162945 96 220 0.0 0.0 0.00 0.00 0.00 50 1019.0
20260902162440 96 214 0.0 0.0 0.00 0.00 0.00 54 1019.2
20260902161935 94 212 1.0 1.0 0.00 0.00 0.00 52 1019.0
20260902161430 95 283 2.0 2.0 0.00 0.00 0.00 52 1018.9
20260902160926 94 182 0.0 0.0 0.00 0.00 0.00 53 1019.1
20260902160421 93 243 1.0 1.0 0.00 0.00 0.00 55 1019.2
20260902155920 93 144 0.0 0.0 0.00 0.00 0.00 54 1019.1
20260902155415 93 312 1.0 1.0 0.00 0.00 0.00 56 1019.3
20260902154908 94 302 2.0 2.0 0.00 0.00 0.00 55 1019.1
20260902154404 94 226 1.0 2.0 0.00 0.00 0.00 56 1019.1
20260902153903 93 234 0.0 1.0 0.00 0.00 0.00 59 1019.2
20260902153402 94 249 0.0 0.0 0.00 0.00 0.00 57 1019.0
20260902152858 92 224 0.0 0.0 0.00 0.00 0.00 59 1019.2
20260902152354 92 211 1.0 1.0 0.00 0.00 0.00 60 1019.0
20260902151849 92 227 1.0 1.0 0.00 0.00 0.00 61 1019.1
20260902151345 92 237 0.0 0.0 0.00 0.00 0.00 64 1019.2
20260902150839 91 238 1.0 1.0 0.00 0.00 0.00 62 1019.3
20260902150335 90 244 0.0 0.0 0.00 0.00 0.00 63 1019.2
20260902145835 91 185 0.0 0.0 0.00 0.00 0.00 64 1019.2
20260902145330 91 228 0.0 0.0 0.00 0.00 0.00 63 1019.0
20260902144825 89 226 0.0 0.0 0.00 0.00 0.00 67 1019.3
20260902144321 88 249 2.0 2.0 0.00 0.00 0.00 66 1019.3
20260902143816 87 218 0.0 0.0 0.00 0.00 0.00 68 1019.3
20260902143311 86 251 2.0 2.0 0.00 0.00 0.00 70 1019.5
20260902142807 86 217 0.0 0.0 0.00 0.00 0.00 72 1019.4
20260902142306 85 234 0.0 0.0 0.00 0.00 0.00 71 1019.2
20260902141803 84 237 0.0 0.0 0.00 0.00 0.00 74 1019.5
20260902141259 82 236 0.0 0.0 0.00 0.00 0.00 77 1019.3
20260902140758 81 230 0.0 0.0 0.00 0.00 0.00 78 1019.4
20260902140254 81 230 0.0 0.0 0.00 0.00 0.00 78 1019.4
20260902135752 81 231 0.0 0.0 0.00 0.00 0.00 78 1019.3
20260902135249 81 234 0.0 0.0 0.00 0.00 0.00 76 1019.4
20260902134748 81 224 0.0 0.0 0.00 0.00 0.00 77 1019.2
20260902134243 81 223 0.0 0.0 0.00 0.00 0.00 78 1019.2
20260902133739 82 199 0.0 0.0 0.00 0.00 0.00 78 1019.2
20260902133238 82 226 0.0 0.0 0.00 0.00 0.00 79 1019.1
20260902132733 82 236 0.0 0.0 0.00 0.00 0.00 78 1019.0
20260902132229 83 236 0.0 0.0 0.00 0.00 0.00 77 1019.0
20260902131724 83 226 0.0 0.0 0.00 0.00 0.00 76 1019.1
20260902131220 83 232 0.0 0.0 0.00 0.00 0.00 75 1019.0
20260902130720 82 226 0.0 0.0 0.00 0.00 0.00 76 1018.8
20260902130216 80 225 0.0 0.0 0.00 0.00 0.00 80 1018.8
20260902125711 79 227 0.0 0.0 0.00 0.00 0.00 83 1018.8
20260902125208 78 223 0.0 0.0 0.00 0.00 0.00 84 1018.8
20260902124704 77 231 0.0 0.0 0.00 0.00 0.00 85 1018.7
20260902124204 77 231 0.0 0.0 0.00 0.00 0.00 86 1018.9
20260902123659 77 231 0.0 0.0 0.00 0.00 0.00 86 1018.6
20260902123155 76 230 0.0 0.0 0.00 0.00 0.00 86 1018.7
20260902122654 76 231 0.0 0.0 0.00 0.00 0.00 86 1018.4
20260902122150 76 231 0.0 0.0 0.00 0.00 0.00 86 1018.6
20260902121644 76 228 0.0 0.0 0.00 0.00 0.00 86 1018.5
20260902121139 76 229 0.0 0.0 0.00 0.00 0.00 86 1018.5
20260902120635 76 229 0.0 0.0 0.00 0.00 0.00 85 1018.5
20260902120131 76 229 0.0 0.0 0.00 0.00 0.00 85 1018.4
20260902115620 77 236 0.0 0.0 0.00 0.00 0.00 85 1018.5
20260902115116 77 236 0.0 0.0 0.00 0.00 0.00 84 1018.4
20260902114612 77 236 0.0 0.0 0.00 0.00 0.00 84 1018.5
20260902114112 76 231 0.0 0.0 0.00 0.00 0.00 85 1018.4
20260902113608 76 230 0.0 0.0 0.00 0.00 0.00 86 1018.3
20260902113102 76 225 0.0 0.0 0.00 0.00 0.00 85 1018.2
20260902112558 77 231 0.0 0.0 0.00 0.00 0.00 85 1018.3
20260902112054 77 231 0.0 0.0 0.00 0.00 0.00 85 1018.3
20260902111550 77 231 0.0 0.0 0.00 0.00 0.00 84 1018.2
20260902111046 77 231 0.0 0.0 0.00 0.00 0.00 84 1018.2
20260902110542 77 231 0.0 0.0 0.00 0.00 0.00 84 1018.1
20260902110037 77 231 0.0 0.0 0.00 0.00 0.00 84 1018.0
20260902105532 77 230 0.0 0.0 0.00 0.00 0.00 83 1018.1
20260902105032 77 236 0.0 0.0 0.00 0.00 0.00 83 1018.0
20260902104528 78 236 0.0 0.0 0.00 0.00 0.00 82 1018.2
20260902104027 78 236 0.0 0.0 0.00 0.00 0.00 82 1018.3
20260902103523 78 236 0.0 0.0 0.00 0.00 0.00 81 1018.2
20260902103018 78 238 0.0 0.0 0.00 0.00 0.00 81 1018.2
20260902102515 78 242 0.0 0.0 0.00 0.00 0.00 82 1018.1
20260902102011 78 236 0.0 0.0 0.00 0.00 0.00 82 1018.1
20260902101506 77 229 0.0 0.0 0.00 0.00 0.00 82 1018.4
20260902101005 78 229 0.0 0.0 0.00 0.00 0.00 82 1018.2
20260902100500 78 226 0.0 0.0 0.00 0.00 0.00 81 1018.1
20260902100000 78 235 0.0 0.0 0.00 0.00 0.00 82 1018.2
20260902095454 78 236 0.0 0.0 0.00 0.00 0.00 81 1018.2
20260902094954 78 238 0.0 0.0 0.00 0.00 0.00 82 1018.3
20260902094449 78 227 0.0 0.0 0.00 0.00 0.00 82 1018.0
20260902093944 78 236 0.0 0.0 0.00 0.00 0.00 82 1018.2
20260902093439 78 229 0.0 0.0 0.00 0.00 0.00 81 1018.3
20260902092938 78 234 0.0 0.0 0.00 0.00 0.00 80 1018.2
20260902092434 78 231 0.0 0.0 0.00 0.00 0.00 80 1018.2
20260902091934 78 230 0.0 0.0 0.00 0.00 0.00 80 1018.2
20260902091429 78 229 0.0 0.0 0.00 0.00 0.00 80 1018.2
20260902090925 79 230 0.0 0.0 0.00 0.00 0.00 79 1018.2
20260902090420 79 236 0.0 0.0 0.00 0.00 0.00 79 1018.3
20260902085919 78 229 0.0 0.0 0.00 0.00 0.00 79 1018.1
20260902085414 79 229 0.0 0.0 0.00 0.00 0.00 77 1018.3
20260902084909 79 229 0.0 0.0 0.00 0.00 0.00 76 1018.1
20260902084406 79 236 0.0 0.0 0.00 0.00 0.00 77 1018.3
20260902083901 79 230 0.0 0.0 0.00 0.00 0.00 76 1018.3
20260902083401 79 229 0.0 0.0 0.00 0.00 0.00 77 1018.3
20260902082856 79 238 0.0 0.0 0.00 0.00 0.00 77 1018.0
20260902082351 79 253 0.0 0.0 0.00 0.00 0.00 78 1018.2
20260902081848 79 239 0.0 0.0 0.00 0.00 0.00 77 1018.1
20260902081344 79 239 0.0 0.0 0.00 0.00 0.00 77 1018.4
20260902080838 79 231 0.0 0.0 0.00 0.00 0.00 77 1018.3
20260902080335 79 235 0.0 0.0 0.00 0.00 0.00 77 1018.4
20260902075834 79 226 0.0 0.0 0.00 0.00 0.00 77 1018.3
20260902075331 80 240 0.0 0.0 0.00 0.00 0.00 77 1018.5
20260902074826 80 229 0.0 0.0 0.00 0.00 0.00 77 1018.4
20260902074321 80 231 0.0 0.0 0.00 0.00 0.00 76 1018.2
20260902073816 80 231 0.0 0.0 0.00 0.00 0.00 75 1018.3
20260902073312 80 241 0.0 0.0 0.00 0.00 0.00 76 1018.4
20260902072808 81 237 0.0 0.0 0.00 0.00 0.00 76 1018.3
20260902072308 81 239 0.0 0.0 0.00 0.00 0.00 75 1018.3
20260902071800 81 242 0.0 0.0 0.00 0.00 0.00 74 1018.4
20260902071254 81 236 0.0 0.0 0.00 0.00 0.00 74 1018.5
20260902070751 81 242 0.0 0.0 0.00 0.00 0.00 75 1018.4
20260902070250 81 229 0.0 0.0 0.00 0.00 0.00 76 1018.5
20260902065749 81 235 0.0 0.0 0.00 0.00 0.00 76 1018.4
20260902065244 81 228 0.0 0.0 0.00 0.00 0.00 77 1018.7
20260902064740 82 232 0.0 0.0 0.00 0.00 0.00 76 1018.4
20260902064236 82 241 0.0 0.0 0.00 0.00 0.00 76 1018.6
20260902063731 82 232 0.0 0.0 0.00 0.00 0.00 75 1018.5
20260902063226 82 219 0.0 1.0 0.00 0.00 0.00 75 1018.4
20260902062725 82 228 0.0 0.0 0.00 0.00 0.00 74 1018.3
20260902062221 83 224 0.0 0.0 0.00 0.00 0.00 74 1018.3
20260902061719 83 242 0.0 0.0 0.00 0.00 0.00 73 1018.5
20260902061215 83 222 0.0 1.0 0.00 0.00 0.00 73 1018.4
20260902060712 83 231 0.0 0.0 0.00 0.00 0.00 73 1018.4
20260902060207 84 225 0.0 1.0 0.00 0.00 0.00 72 1018.5
20260902055703 83 237 0.0 0.0 0.00 0.00 0.00 72 1018.4
20260902055159 84 195 2.0 2.0 0.00 0.00 0.00 72 1018.3
20260902054654 84 188 1.0 2.0 0.00 0.00 0.00 72 1018.4
20260902054149 84 203 2.0 2.0 0.00 0.00 0.00 72 1018.5
20260902053645 84 201 1.0 2.0 0.00 0.00 0.00 72 1018.3
20260902053145 84 226 1.0 2.0 0.00 0.00 0.00 72 1018.3
20260902052644 84 210 1.0 1.0 0.00 0.00 0.00 71 1018.4
20260902052140 84 199 1.0 2.0 0.00 0.00 0.00 71 1018.5
20260902051638 84 219 1.0 1.0 0.00 0.00 0.00 71 1018.4
20260902051134 85 191 3.0 3.0 0.00 0.00 0.00 70 1018.3
20260902050633 85 201 1.0 1.0 0.00 0.00 0.00 70 1018.4
20260902050129 85 176 2.0 2.0 0.00 0.00 0.00 69 1018.4
20260902045624 85 199 3.0 3.0 0.00 0.00 0.00 69 1018.5
20260902045120 86 194 3.0 3.0 0.00 0.00 0.00 69 1018.5
20260902044620 86 197 2.0 3.0 0.00 0.00 0.00 68 1018.5
20260902044116 86 176 2.0 3.0 0.00 0.00 0.00 68 1018.2
20260902043611 86 199 1.0 2.0 0.00 0.00 0.00 68 1018.2
20260902043106 86 226 1.0 2.0 0.00 0.00 0.00 67 1018.3
20260902042606 86 167 4.0 5.0 0.00 0.00 0.00 66 1018.5